Home > Weather > Stendal > Past weeks

Flag for Germany Weather for the Past 2 Weeks in Stendal, Saxony-Anhalt, Germany

Now
41 °F

Fog.


Feels Like: 41 °F
Forecast: 33 / 38 °F
Wind: 2 mph from North

Location: Berlin-Tegel

Current Time: Feb 14, 2016 at 11:19:14 PM

Latest Report: Feb 14, 2016 at 10:20 PM


Visibility: 2 mi

Pressure: 29.39 "Hg

Humidity: 93%

Dew point: 39 °F

Location of StendalLocation

Historic Weather in Stendal — Graph

°F

Stendal Temperature Yesterday

Maximum temperature yesterday: 45 °F (at 2:20 PM)
Minimum temperature yesterday: 28 °F (at 5:50 AM)
Average temperature yesterday: 36 °F

High & Low Weather Summary for the Past Weeks

 TemperatureHumidityPressure
High54 °F (Feb 2, 12:50 PM)100% (Feb 1, 12:20 PM)30.24 "Hg (Feb 1, 12:20 PM)
Low28 °F (Feb 13, 5:50 AM)44% (Feb 2, 1:20 PM)28.94 "Hg (Feb 9, 9:50 PM)
Average42 °F77%29.64 "Hg
* Reported Jan 30 9:20 PM — Feb 14 9:50 PM, Stendal, Weather by CustomWeather, © 2016

Note: Actual official high and low records may vary slightly from our data, if they occured in-between our weather recording intervals... More about our weather records

Advertising

Stendal Weather History for the Previous 24 Hours

 ConditionsComfort  
Time TempWeatherWind HumidityBarometerVisibility
9:50 PM
Sun, Feb 14
41 °FFog.1 mph93%29.39 "Hg2 mi
9:20 PM41 °FFog.3 mph93%29.36 "Hg2 mi
8:50 PM41 °FFog.3 mph93%29.36 "Hg2 mi
8:20 PM41 °FFog.5 mph93%29.36 "Hg2 mi
7:50 PM41 °FFog.3 mph93%29.33 "Hg2 mi
7:20 PM39 °FFog.5 mph93%29.33 "Hg2 mi
6:50 PM39 °FFog.3 mph93%29.33 "Hg2 mi
6:20 PM39 °FFog.6 mph93%29.30 "Hg2 mi
5:50 PM39 °FFog.3 mph93%29.30 "Hg2 mi
5:20 PM39 °FDrizzle. Fog.5 mph93%29.27 "Hg1 mi
4:50 PM39 °FDrizzle. Fog.6 mph93%29.27 "Hg1 mi
4:20 PM39 °FDrizzle. Fog.6 mph93%29.27 "Hg1 mi
3:50 PM39 °FDrizzle. Fog.6 mph93%29.24 "Hg1 mi
3:20 PM39 °FDrizzle. Fog.7 mph93%29.24 "Hg2 mi
2:50 PM39 °FLight rain. Fog.8 mph87%29.21 "Hg1 mi
2:20 PM39 °FLight rain. Fog.8 mph87%29.21 "Hg3 mi
1:50 PM39 °FFog.8 mph87%29.21 "Hg3 mi
1:20 PM39 °FLight rain. Fog.8 mph87%29.21 "Hg3 mi
12:50 PM37 °FLight rain. Fog.8 mph93%29.21 "Hg3 mi
12:20 PM37 °FLight rain. Fog.10 mph87%29.21 "Hg3 mi
11:50 AM37 °FLight rain. Fog.10 mph87%29.21 "Hg3 mi
11:20 AM37 °FFog.9 mph87%29.21 "Hg3 mi
10:50 AM37 °FFog.9 mph87%29.18 "Hg3 mi
10:20 AM36 °FFog.10 mph93%29.18 "Hg3 mi
9:50 AM36 °FFog.10 mph93%29.18 "Hg3 mi
9:20 AM36 °FFog.10 mph93%29.18 "Hg3 mi
8:20 AM36 °FLight rain. Fog.12 mph87%29.18 "Hg2 mi
7:50 AM34 °FLight rain. Fog.9 mph93%29.18 "Hg2 mi
7:20 AM36 °FLight rain. Fog.12 mph87%29.18 "Hg3 mi
6:50 AM36 °FLight rain. Fog.10 mph87%29.18 "Hg3 mi
6:20 AM36 °FFog.10 mph87%29.18 "Hg3 mi
5:50 AM36 °FFog.13 mph87%29.18 "Hg3 mi
5:20 AM36 °FPassing clouds.12 mph87%29.18 "Hg4 mi
4:50 AM36 °FPassing clouds.10 mph87%29.21 "Hg4 mi
4:20 AM36 °FPassing clouds.12 mph87%29.21 "Hg4 mi
3:50 AM36 °FPassing clouds.10 mph87%29.21 "Hg4 mi
3:20 AM36 °FPassing clouds.13 mph87%29.21 "Hg4 mi
2:20 AM34 °FPassing clouds.9 mph93%29.24 "Hg4 mi
1:50 AM34 °FPassing clouds.10 mph93%29.24 "Hg4 mi
1:20 AM34 °FPassing clouds.10 mph93%29.24 "Hg4 mi
12:50 AM34 °FPassing clouds.12 mph93%29.27 "Hg4 mi
12:20 AM34 °FPassing clouds.13 mph87%29.27 "Hg4 mi
11:50 PM
Sat, Feb 13
34 °FPassing clouds.16 mph87%29.30 "Hg4 mi
11:20 PM34 °FPassing clouds.12 mph87%29.30 "Hg4 mi
Weather by CustomWeather, © 2016

See weather overviewHow to use our weather pages